FW0782 Weather Reports


time (UTC)temp
F
wind
direction
speed
knots
gust
knots
rain 1hr
in
rain 24hr
in
rain mn
in
humidity
%
barometer
mb
20260507161719 57 347 2.6 6.1 0.00 0.00 0.00 64 1016.6
20260507154019 57 12 1.7 4.3 0.00 0.00 0.00 64 1016.1
20260507153719 57 11 2.6 5.2 0.00 0.00 0.00 64 1016.4
20260507153219 57 15 2.6 4.3 0.00 0.00 0.00 64 1016.4
20260507152719 57 13 2.6 6.1 0.00 0.00 0.00 64 1016.4
20260507152219 57 0 2.6 7.8 0.00 0.00 0.00 65 1016.4
20260507133219 60 12 4.3 8.7 0.00 0.00 0.00 65 1016.7
20260507133019 60 53 4.3 8.7 0.00 0.00 0.00 65 1016.4
20260507132718 61 59 5.2 8.7 0.00 0.00 0.00 67 1016.6
20260507132018 61 6 4.3 10.4 0.00 0.00 0.00 67 1016.3
20260507131218 60 356 5.2 7.8 0.00 0.00 0.00 67 1016.6
20260507130718 59 7 2.6 7.8 0.00 0.00 0.00 68 1016.6
20260507130219 59 45 6.1 8.7 0.00 0.00 0.00 65 1016.6
20260507130019 59 58 5.2 9.6 0.00 0.00 0.00 64 1016.2
20260507123019 60 71 6.1 9.6 0.00 0.00 0.00 60 1016.1
20260507122718 61 9 2.6 6.1 0.00 0.00 0.00 60 1016.4
20260507122218 61 3 3.5 6.1 0.00 0.00 0.00 61 1016.4
20260507121719 60 353 3.5 7.8 0.00 0.00 0.00 62 1016.4
20260507121218 59 24 2.6 7.8 0.00 0.00 0.00 61 1016.5
20260507110219 59 70 3.5 7.0 0.00 0.00 0.00 58 1016.6
20260507110018 59 68 4.3 7.0 0.00 0.00 0.00 59 1016.4
20260507105718 59 65 3.5 7.0 0.00 0.00 0.00 62 1016.6
20260507105218 59 58 5.2 8.7 0.00 0.00 0.00 63 1016.7
20260507105018 59 59 2.6 6.1 0.00 0.00 0.00 64 1016.4
20260507104718 59 59 2.6 5.2 0.00 0.00 0.00 62 1016.7
20260507104218 59 59 5.2 10.4 0.00 0.00 0.00 59 1016.8
20260507104018 59 61 5.2 10.4 0.00 0.00 0.00 59 1016.4
20260507103718 59 54 2.6 7.0 0.00 0.00 0.00 58 1016.7
20260507080218 53 101 4.3 10.4 0.00 0.00 0.00 75 1016.2
20260507080019 53 100 5.2 9.6 0.00 0.00 0.00 75 1015.9
20260507075718 54 88 5.2 7.8 0.00 0.00 0.00 76 1016.2
20260507075218 53 82 4.3 7.0 0.00 0.00 0.00 77 1016.2
20260507075019 53 85 4.3 7.0 0.00 0.00 0.00 77 1015.9
20260507074718 53 98 5.2 7.8 0.00 0.00 0.00 76 1016.1
20260507074219 53 74 3.5 7.8 0.00 0.00 0.00 77 1016.1
20260507074019 53 68 3.5 6.1 0.00 0.00 0.00 76 1015.8
20260507073718 53 69 3.5 7.8 0.00 0.00 0.00 77 1016.1
20260507073219 53 63 5.2 7.8 0.00 0.00 0.00 78 1016.1
20260507073019 53 69 4.3 7.0 0.00 0.00 0.00 77 1015.9
20260506210218 51 55 0.0 0.0 0.00 0.00 0.00 74 1012.7
20260506210018 51 0 0.0 0.0 0.00 0.00 0.00 74 1012.3
20260506205219 51 55 0.0 0.0 0.00 0.00 0.00 74 1012.6
20260506205018 51 0 0.0 0.0 0.00 0.00 0.00 74 1012.3
20260506204719 51 55 0.0 0.0 0.00 0.00 0.00 74 1012.6
20260506204018 51 0 0.0 0.0 0.00 0.00 0.00 74 1012.2
20260506203718 51 55 0.0 0.0 0.00 0.00 0.00 74 1012.5
20260506200219 52 55 0.0 0.0 0.00 0.00 0.00 71 1012.4
20260506200019 52 0 0.0 0.0 0.00 0.00 0.00 71 1012.0
20260506195718 52 55 0.0 0.0 0.00 0.00 0.00 70 1012.3
20260506195219 52 55 0.0 0.0 0.00 0.00 0.00 70 1012.3
20260506195019 52 0 0.0 0.0 0.00 0.00 0.00 70 1012.0
20260506194718 52 55 0.0 0.0 0.00 0.00 0.00 70 1012.2
20260506194219 52 55 0.0 0.0 0.00 0.00 0.00 69 1012.1
20260506194020 52 0 0.0 0.0 0.00 0.00 0.00 69 1011.8
20260506193718 52 55 0.0 0.0 0.00 0.00 0.00 69 1012.1
20260506191021 53 0 0.0 0.0 0.00 0.00 0.00 67 1011.6
20260506190721 54 55 0.0 0.0 0.00 0.00 0.00 66 1011.9
20260506190021 54 56 1.7 3.5 0.00 0.00 0.00 66 1011.4
20260506185721 54 55 1.7 4.3 0.00 0.00 0.00 66 1011.7
20260506185022 54 56 2.6 4.3 0.00 0.00 0.00 65 1011.3
20260506184721 55 55 2.6 4.3 0.00 0.00 0.00 65 1011.6
20260506184221 55 55 1.7 5.2 0.00 0.00 0.00 65 1011.5
20260506184022 55 55 1.7 5.2 0.00 0.00 0.00 65 1011.2
20260506183721 55 55 2.6 5.2 0.00 0.00 0.00 66 1011.5
20260506183221 55 55 4.3 7.8 0.00 0.00 0.00 67 1011.5
20260506183021 55 56 5.2 7.8 0.00 0.00 0.00 68 1011.2
20260506181724 56 15 3.5 6.1 0.00 0.00 0.00 72 1011.2
20260506181220 56 53 4.3 7.0 0.00 0.00 0.00 71 1011.1
20260506180721 56 54 4.3 8.7 0.00 0.00 0.00 71 1011.0
20260506180221 56 53 5.2 7.0 0.00 0.00 0.00 70 1010.9
20260506180021 56 32 4.3 7.0 0.00 0.00 0.00 70 1010.5
20260506175721 56 349 5.2 10.4 0.00 0.00 0.00 69 1010.8
20260506175221 56 44 4.3 7.8 0.00 0.00 0.00 69 1010.8
20260506175021 57 16 4.3 7.8 0.00 0.00 0.00 70 1010.5
20260506174721 57 10 5.2 11.3 0.00 0.00 0.00 70 1010.8
20260506174021 56 26 3.5 7.0 0.00 0.00 0.00 69 1010.4
20260506173721 57 55 5.2 8.7 0.00 0.00 0.00 69 1010.7
20260506173221 57 20 4.3 7.8 0.00 0.00 0.00 68 1010.6
20260506173021 57 54 4.3 7.8 0.00 0.00 0.00 69 1010.3
20260506172221 57 2 4.3 10.4 0.00 0.00 0.00 70 1010.6
20260506172021 57 5 4.3 8.7 0.00 0.00 0.00 70 1010.3
20260506171720 57 21 2.6 12.2 0.00 0.00 0.00 70 1010.5
20260506171221 56 1 5.2 11.3 0.00 0.00 0.00 70 1010.5
20260506171021 56 1 5.2 11.3 0.00 0.00 0.00 70 1010.2
20260506170721 56 11 5.2 10.4 0.00 0.00 0.00 70 1010.4
20260506165720 57 8 4.3 10.4 0.00 0.00 0.00 69 1010.5
20260506165021 57 354 6.1 10.4 0.00 0.00 0.00 69 1010.1
20260506164720 57 37 2.6 6.1 0.00 0.00 0.00 68 1010.3
20260506164221 57 347 4.3 8.7 0.00 0.00 0.00 68 1010.3
20260506164020 57 39 3.5 7.0 0.00 0.00 0.00 68 1010.0
20260506163721 57 28 6.1 15.6 0.00 0.00 0.00 69 1010.3
20260506163021 58 14 4.3 13.0 0.00 0.00 0.00 69 1009.9
20260506162220 58 1 5.2 13.0 0.00 0.00 0.00 70 1010.2